User: anonymous   Login
Location: Thompson
(55.7500°N, 97.8670°W)
Time: 23:41:25
(UTC-06:00)
Language:

Cosmos 1833 Rocket - Orbit

View from above orbital plane
View from above orbital plane
View from above satellite
View from above satellite

Ground track
Ground track

The orbit data is extracted from the following two-line orbital elements,

1 17590U 87027B   14355.42061384 -.00000063  00000-0 -76586-5 0  8539
2 17590 071.0039 263.5132 0007357 258.3975 101.6323 14.16673720435417
Epoch (UTC): 21 December 2014 10:05:41
Eccentricity: 0.0007357
inclination: 71.0039°
perigee height: 831 km
apogee height: 842 km
right ascension of ascending node: 263.5132°
argument of perigee: 258.3975°
revolutions per day: 14.16673720
mean anomaly at epoch: 101.6323°
orbit number at epoch: 43541

The dashed part of the orbit path shows where the satellite is in the earth's shadow,  

DLR